GFSFLT2_con_lsi_078.txt.gz
Lid_Strength_Index
6 7 7 7 8 8 8 8 8 8 7 8 7 7 7 6 5 3 4 2 1 0 -2 -1 -1 -1 -1
8 8 8 7 8 9 9 9 9 8 8 8 7 7 7 7 6 5 5 4 3 2 1 -0 -0 -1 -1
8 8 9 9 10 9 10 10 10 8 8 9 9 9 8 8 8 7 5 5 4 4 3 2 1 0 0
8 9 9 9 9 10 11 11 11 11 11 11 10 10 8 8 8 8 8 7 5 5 4 4 3 3 2
9 9 10 11 11 11 11 12 11 10 10 10 11 11 10 9 9 9 9 8 8 6 6 5 5 5 4
9 10 10 10 11 12 12 12 12 10 11 11 11 12 10 9 9 9 9 8 8 8 7 7 7 7 7
9 9 10 10 11 12 11 10 10 12 11 13 12 11 10 10 10 10 10 9 8 8 8 8 8 8 8
9 9 9 10 10 9 9 10 12 12 12 14 12 11 10 9 10 9 9 9 9 9 9 8 8 8 7
10 10 10 10 9 10 11 12 14 13 13 13 12 12 12 11 10 10 10 9 9 9 9 9 9 10 9
10 10 10 10 11 10 10 12 13 14 13 13 13 13 14 12 11 11 10 10 10 11 10 11 11 10 10
12 12 11 11 11 12 11 11 12 13 13 11 13 14 12 13 13 12 12 12 12 12 13 12 11 11 10
13 14 14 13 12 12 13 12 12 12 12 12 12 12 13 14 14 14 13 12 12 12 12 12 12 12 11
14 13 13 12 12 13 13 13 13 12 13 13 13 14 13 13 14 14 14 14 13 12 12 12 12 11 12
13 13 13 14 14 13 13 13 13 14 13 14 14 14 14 14 14 13 13 13 12 12 12 12 12 11 11
13 14 14 14 14 13 13 14 14 14 14 14 14 14 13 14 14 14 14 14 13 12 13 13 12 11 11
13 13 14 14 14 14 14 14 14 14 14 14 14 15 15 14 13 14 14 14 13 13 13 14 13 10 10
12 13 13 13 14 15 15 14 14 14 14 14 14 15 16 16 14 13 13 13 13 13 12 12 12 11 11

GFSFLT2_con_lsi_081.txt.gz
Lid_Strength_Index
6 6 5 6 7 7 7 7 6 6 5 7 6 6 6 6 6 5 4 4 3 1 -0 -1 -1 -1 -2
6 8 7 7 8 8 8 8 8 7 6 6 7 6 6 7 7 6 5 5 4 2 2 1 -0 -1 -1
8 8 9 9 10 9 9 10 9 7 7 7 7 7 7 8 8 8 7 6 5 4 3 3 2 1 -1
8 9 9 9 9 11 11 11 11 10 9 9 9 8 8 9 9 9 9 8 6 5 4 4 3 2 2
8 9 9 10 11 10 11 12 11 11 11 11 11 11 10 10 10 10 9 8 7 6 6 5 4 4 3
8 9 9 10 11 11 12 13 13 11 11 11 12 13 12 12 10 10 8 8 7 7 7 6 6 6 5
8 8 9 10 11 12 12 11 11 12 12 13 13 14 13 12 10 9 9 8 8 8 8 7 7 7 7
8 9 9 9 10 10 11 11 12 13 13 15 14 14 13 12 9 8 8 9 9 9 8 7 7 7 7
10 9 9 8 9 10 11 12 14 15 14 14 15 15 14 12 9 8 9 9 9 8 9 9 9 9 9
11 11 10 10 9 10 11 13 14 15 14 15 15 15 15 13 12 11 11 9 9 9 10 10 10 11 12
12 12 12 12 13 13 12 13 14 14 14 14 15 15 14 14 13 13 12 12 13 12 11 12 11 12 12
14 14 14 13 14 14 14 13 14 13 13 13 14 14 14 15 15 14 14 13 13 13 13 12 12 12 12
14 14 14 13 14 15 15 14 14 14 13 15 14 16 15 16 16 16 16 14 14 14 15 15 15 14 15
14 14 14 15 15 14 15 15 15 16 14 15 16 16 16 16 16 15 15 15 15 15 15 15 14 14 14
14 14 15 15 15 15 15 15 16 15 16 16 15 15 16 17 17 16 15 16 15 16 16 17 15 14 14
13 14 15 15 15 15 15 16 16 16 16 16 17 18 17 16 14 17 16 17 15 15 16 18 17 14 13
13 14 15 15 15 16 16 16 17 16 16 16 17 18 19 19 16 13 17 16 16 16 16 16 17 15 13

GFSFLT2_con_lsi_087.txt.gz
Lid_Strength_Index
8 8 7 7 8 8 6 6 6 5 4 5 5 5 5 5 5 4 4 3 3 3 2 1 1 -0 -1
8 9 8 7 8 8 8 7 7 6 5 5 5 5 5 5 6 6 5 5 4 3 3 2 1 1 -1
8 8 9 9 10 9 9 9 9 7 5 6 6 6 6 6 7 8 7 6 5 4 4 4 2 2 -1
8 9 9 9 9 10 11 10 11 8 7 8 7 7 7 7 8 9 8 8 6 5 5 4 4 3 1
9 9 10 10 11 10 11 11 11 11 11 10 10 10 9 8 9 9 9 8 7 6 6 5 5 4 3
9 9 9 10 10 11 11 12 12 10 12 12 11 12 12 12 9 9 9 9 9 8 7 6 6 5 4
9 9 10 9 10 12 12 12 12 11 12 12 13 13 14 12 9 9 9 8 8 8 7 7 6 6 5
8 8 8 9 9 11 11 11 13 12 12 13 14 16 15 15 10 9 8 9 8 8 7 6 6 5 6
8 7 7 7 9 11 12 13 14 14 14 14 16 16 16 15 13 8 9 9 8 8 7 7 7 7 7
12 10 8 8 7 10 11 12 14 14 14 16 17 16 19 15 14 14 13 9 8 8 8 9 9 11 13
13 13 13 13 13 12 11 11 13 13 15 17 21 19 20 19 15 14 14 13 13 11 9 10 10 11 13
14 14 14 15 16 15 13 14 15 12 14 17 21 20 22 21 18 15 15 14 15 14 15 12 10 11 11
14 14 16 15 16 16 16 16 16 15 14 16 19 20 21 21 19 18 17 16 16 17 16 16 15 15 16
14 15 15 16 16 17 18 18 18 16 15 19 21 20 22 20 20 20 19 19 18 17 16 16 14 14 15
14 15 15 15 16 17 17 19 21 18 16 17 16 17 19 19 20 18 18 18 18 17 16 17 17 16 15
14 15 15 15 16 17 18 19 21 19 19 18 20 21 19 17 15 18 19 19 18 17 17 21 20 17 15
13 14 15 16 15 16 16 17 19 18 19 20 23 23 23 21 17 13 19 18 18 18 17 19 21 19 15

GFSFLT2_con_lsi_090.txt.gz
Lid_Strength_Index
9 9 9 8 9 8 7 7 7 4 4 4 5 5 5 5 5 5 4 4 3 3 2 1 1 -0 0
9 9 9 9 9 9 8 8 7 5 4 4 5 5 5 6 6 6 6 5 4 4 3 3 2 0 0
9 9 10 9 10 9 9 10 9 7 5 4 5 6 5 6 7 8 8 7 6 5 4 4 3 1 1
10 10 11 10 9 10 11 10 10 8 6 7 6 7 6 6 8 9 8 8 7 6 5 5 4 2 2
10 10 10 11 10 10 10 11 10 10 10 10 9 10 10 7 9 9 8 8 8 7 6 5 5 3 2
9 10 10 10 10 11 11 12 12 11 12 12 11 11 11 11 9 8 9 9 8 8 7 6 6 5 4
8 10 10 10 11 12 12 12 11 12 12 12 12 13 12 12 9 9 9 8 8 8 7 7 6 5 5
8 9 9 9 9 9 10 11 12 12 11 13 14 14 13 14 10 9 8 8 8 8 7 7 6 6 5
7 7 6 7 8 10 12 12 14 13 13 13 15 15 15 15 14 9 8 8 8 8 8 8 7 7 7
12 9 7 7 7 9 11 12 13 14 13 14 16 16 18 16 14 14 13 9 8 8 9 9 9 12 12
13 13 12 11 9 10 10 10 12 12 13 15 17 18 20 19 15 15 14 13 11 10 9 10 9 11 14
13 13 13 15 15 14 11 11 12 12 12 16 19 18 21 22 18 16 15 15 15 15 15 12 10 10 10
13 13 13 15 16 15 15 14 15 14 14 17 18 21 21 22 19 19 17 16 17 17 17 16 16 16 16
11 12 14 16 17 17 17 16 16 16 15 17 18 19 23 21 21 21 20 19 19 18 17 17 15 15 15
12 14 14 15 15 16 16 17 18 17 16 16 16 17 19 19 21 19 18 19 19 18 17 18 17 15 14
12 13 13 14 15 16 16 16 17 18 18 16 18 20 19 17 15 18 19 18 19 17 18 21 19 15 14
12 13 13 13 14 15 15 16 17 18 18 18 20 22 23 21 18 13 19 20 19 18 18 19 19 17 15

GFSFLT2_con_lsi_096.txt.gz
Lid_Strength_Index
9 9 9 8 8 8 7 7 6 4 5 5 5 6 5 5 5 5 5 5 5 5 4 3 3 3 2
10 10 10 9 9 9 9 9 8 5 5 5 5 5 5 5 5 6 6 7 7 6 5 4 4 3 3
10 10 10 10 10 10 10 11 10 7 5 5 5 5 5 5 5 6 8 8 8 8 7 5 5 4 3
10 11 11 11 10 11 12 11 11 10 8 7 5 5 5 5 6 7 9 9 8 8 7 7 6 5 3
10 11 12 12 11 11 11 12 11 12 12 10 9 8 7 6 7 8 8 8 8 8 8 7 6 5 4
10 9 10 11 12 12 13 13 13 12 13 13 10 11 10 10 7 8 8 8 9 8 8 7 7 5 4
7 8 9 10 11 13 13 13 13 13 12 12 12 12 11 11 8 7 8 8 8 8 8 7 6 6 4
5 6 8 8 9 9 10 12 14 13 13 13 14 13 13 12 9 8 8 9 8 8 8 7 6 5 5
5 6 6 7 8 10 13 12 14 14 14 13 15 15 14 14 13 9 9 8 8 7 7 7 7 7 9
8 7 7 6 8 9 11 11 14 14 14 14 16 15 15 15 14 13 12 8 8 8 9 8 8 12 12
9 10 9 8 8 11 10 10 13 13 13 13 14 15 15 17 16 14 14 13 12 10 8 9 9 11 13
9 10 10 10 10 11 11 11 11 11 11 13 14 14 15 16 15 15 15 14 14 12 14 12 9 9 10
9 9 9 9 11 12 12 13 13 13 12 13 14 15 15 17 18 16 16 15 16 15 16 15 15 16 15
9 9 10 11 10 11 12 13 13 14 14 14 14 14 17 21 19 19 19 17 16 17 15 16 14 14 15
9 10 11 11 11 11 12 12 13 14 15 15 15 15 15 19 20 19 17 18 16 16 14 16 16 16 15
9 9 10 10 12 12 13 12 12 13 15 15 15 15 15 16 15 18 18 18 18 15 16 19 19 16 15
8 9 10 10 10 12 12 12 13 14 14 15 16 16 19 17 17 13 17 18 18 17 17 18 19 18 15